sat.trackr.live / text

‹ back to catalog

STARLINK-34693

NORAD 64793 · 2025-150D

PAYLOAD ACTIVE UNKNOWN

§ Identity

Operator
Country
US
Launch date
2025-07-16
Launch site
AFWTR
Launch vehicle
Mass (kg)
RCS (m²)

Purposes: comms

External: N2YO · Heavens-Above · Gunter

§ Orbital elements

Epoch: 2026-05-25T03:21:29.780928Z

Period
96.11 min
Inclination
70.0007°
Eccentricity
0.0003098
Mean motion
14.98337336 rev/d
Perigee alt
569.9 km
Apogee alt
574.2 km
Semi-major
6,950.2 km
B*
1.6092e-4
RAAN
301.8807°
Arg perigee
263.9268°
Mean anomaly
96.1538°
Rev number
4,796

§ Raw data

STARLINK-346931 64793U 25150D   26145.13992802  .00001828  00000+0  16092-3 0  99932 64793  70.0007 301.8807 0003098 263.9268  96.1538 14.98337336 47963

JSON: /api/v1/satellites/64793 · /tle

For live sub-satellite position, see the globe view (requires WebGL).

§ Visibility from observer

Set your observer location to see the next 7 days of passes ≥ 10°. The values pass through the URL so the page stays shareable.

No JS? Fill the form by hand. The geolocation button needs JavaScript.